| time (UTC) | temp F | wind direction | speed MPH | gust MPH | rain 1hr in | rain 24hr in | rain mn in | humidity % | barometer mb |
| 20260508032328 | 39 | 68 | 0.0 | 0.0 | 0.00 | 0.00 | 0.00 | 91 | 1014.3 |
| 20260508031328 | 39 | 68 | 0.0 | 0.0 | 0.00 | 0.00 | 0.00 | 91 | 1014.1 |
| 20260508030330 | 39 | 68 | 0.0 | 0.0 | 0.00 | 0.00 | 0.00 | 91 | 1014.1 |
| 20260508025328 | 39 | 68 | 0.0 | 0.0 | 0.00 | 0.00 | 0.00 | 91 | 1014.3 |
| 20260508024329 | 39 | 68 | 0.0 | 0.0 | 0.00 | 0.00 | 0.00 | 90 | 1014.3 |
| 20260508023333 | 39 | 68 | 0.0 | 0.0 | 0.00 | 0.00 | 0.00 | 90 | 1014.5 |
| 20260508022327 | 39 | 68 | 0.0 | 0.0 | 0.00 | 0.00 | 0.00 | 90 | 1014.5 |
| 20260508021324 | 39 | 68 | 0.0 | 0.0 | 0.00 | 0.00 | 0.00 | 90 | 1014.5 |
| 20260508020317 | 40 | 68 | 0.0 | 0.0 | 0.00 | 0.00 | 0.00 | 90 | 1014.5 |
| 20260508015748 | 40 | 68 | 0.0 | 0.0 | 0.00 | 0.00 | 0.00 | 90 | 1014.5 |
| 20260508014316 | 39 | 68 | 0.0 | 0.0 | 0.00 | 0.00 | 0.00 | 90 | 1014.5 |
| 20260508013311 | 40 | 68 | 0.0 | 0.0 | 0.00 | 0.00 | 0.00 | 89 | 1014.8 |
| 20260508012312 | 40 | 68 | 0.0 | 0.0 | 0.00 | 0.00 | 0.00 | 89 | 1014.8 |
| 20260508011313 | 40 | 68 | 0.0 | 0.0 | 0.00 | 0.00 | 0.00 | 89 | 1014.8 |
| 20260508010313 | 40 | 68 | 0.0 | 0.0 | 0.00 | 0.00 | 0.00 | 89 | 1014.8 |
| 20260508005310 | 41 | 68 | 0.0 | 0.0 | 0.00 | 0.00 | 0.00 | 89 | 1015.0 |
| 20260508004300 | 41 | 68 | 0.0 | 0.0 | 0.00 | 0.00 | 0.00 | 88 | 1015.0 |
| 20260508003304 | 41 | 68 | 0.0 | 0.0 | 0.00 | 0.00 | 0.00 | 88 | 1015.1 |
| 20260508002300 | 41 | 68 | 0.0 | 0.0 | 0.00 | 0.00 | 0.00 | 88 | 1015.1 |
| 20260508001300 | 41 | 68 | 0.0 | 0.0 | 0.00 | 0.00 | 0.00 | 88 | 1015.1 |
| 20260508000307 | 41 | 68 | 0.0 | 0.0 | 0.00 | 0.00 | 0.00 | 88 | 1015.1 |
| 20260507235301 | 41 | 68 | 0.0 | 0.0 | 0.00 | 0.00 | 0.00 | 87 | 1015.1 |
| 20260507234301 | 42 | 68 | 0.0 | 0.0 | 0.00 | 0.00 | 0.00 | 87 | 1015.1 |
| 20260507233305 | 42 | 68 | 0.0 | 0.0 | 0.00 | 0.00 | 0.00 | 86 | 1015.1 |
| 20260507232247 | 42 | 68 | 0.0 | 0.0 | 0.00 | 0.00 | 0.00 | 86 | 1015.1 |
| 20260507231249 | 42 | 68 | 0.0 | 0.0 | 0.00 | 0.00 | 0.00 | 86 | 1015.1 |
| 20260507230726 | 42 | 68 | 0.0 | 0.0 | 0.00 | 0.00 | 0.00 | 85 | 1015.1 |
| 20260507225247 | 43 | 68 | 0.0 | 0.0 | 0.00 | 0.00 | 0.00 | 85 | 1015.4 |
| 20260507224247 | 43 | 68 | 0.0 | 0.0 | 0.00 | 0.00 | 0.00 | 85 | 1015.4 |
| 20260507223256 | 44 | 68 | 0.0 | 0.0 | 0.00 | 0.00 | 0.00 | 84 | 1015.5 |
| 20260507222246 | 44 | 68 | 0.0 | 0.0 | 0.00 | 0.00 | 0.00 | 84 | 1015.5 |
| 20260507221247 | 44 | 68 | 0.0 | 0.0 | 0.00 | 0.00 | 0.00 | 84 | 1015.5 |
| 20260507220238 | 44 | 68 | 0.0 | 0.0 | 0.00 | 0.00 | 0.00 | 83 | 1015.5 |
| 20260507215234 | 44 | 68 | 0.0 | 0.0 | 0.00 | 0.00 | 0.00 | 82 | 1015.8 |
| 20260507214233 | 45 | 68 | 0.0 | 0.0 | 0.00 | 0.00 | 0.00 | 82 | 1015.8 |
| 20260507213236 | 46 | 68 | 0.0 | 0.0 | 0.00 | 0.00 | 0.00 | 81 | 1016.0 |
| 20260507212218 | 46 | 68 | 0.0 | 0.0 | 0.00 | 0.00 | 0.00 | 80 | 1016.0 |
| 20260507211654 | 46 | 68 | 0.0 | 0.0 | 0.00 | 0.00 | 0.00 | 79 | 1016.1 |
| 20260507210223 | 47 | 23 | 0.0 | 0.0 | 0.00 | 0.00 | 0.00 | 78 | 1016.1 |
| 20260507205315 | 47 | 45 | 0.0 | 0.0 | 0.00 | 0.00 | 0.00 | 79 | 1016.1 |
| 20260507204304 | 47 | 23 | 0.0 | 0.0 | 0.00 | 0.00 | 0.00 | 78 | 1016.1 |
| 20260507203301 | 48 | 0 | 0.0 | 2.0 | 0.00 | 0.00 | 0.00 | 77 | 1016.0 |
| 20260507202306 | 48 | 0 | 0.0 | 3.0 | 0.00 | 0.00 | 0.00 | 77 | 1016.0 |
| 20260507201306 | 48 | 338 | 0.0 | 2.0 | 0.00 | 0.00 | 0.00 | 76 | 1015.8 |
| 20260507200302 | 49 | 45 | 0.0 | 2.0 | 0.00 | 0.00 | 0.00 | 76 | 1015.8 |
| 20260507195305 | 49 | 0 | 0.0 | 2.0 | 0.00 | 0.00 | 0.00 | 75 | 1015.8 |
| 20260507194306 | 49 | 23 | 0.0 | 2.0 | 0.00 | 0.00 | 0.00 | 74 | 1015.8 |
| 20260507193248 | 50 | 293 | 0.0 | 2.0 | 0.00 | 0.00 | 0.00 | 73 | 1015.6 |
| 20260507192247 | 50 | 0 | 0.0 | 2.0 | 0.00 | 0.00 | 0.00 | 72 | 1015.6 |
| 20260507191250 | 51 | 90 | 1.0 | 4.0 | 0.00 | 0.00 | 0.00 | 71 | 1015.5 |
| 20260507190249 | 51 | 203 | 0.0 | 1.0 | 0.00 | 0.00 | 0.00 | 70 | 1015.5 |
| 20260507185248 | 52 | 45 | 0.0 | 2.0 | 0.00 | 0.00 | 0.00 | 69 | 1015.5 |
| 20260507184252 | 53 | 23 | 1.0 | 4.0 | 0.00 | 0.00 | 0.00 | 68 | 1015.5 |
| 20260507182249 | 54 | 23 | 2.0 | 6.0 | 0.00 | 0.00 | 0.00 | 66 | 1015.2 |
| 20260507181248 | 54 | 293 | 2.0 | 7.0 | 0.00 | 0.00 | 0.00 | 65 | 1015.2 |
| 20260507180249 | 55 | 270 | 2.0 | 4.0 | 0.00 | 0.00 | 0.00 | 64 | 1015.2 |
| 20260507175249 | 56 | 338 | 3.0 | 8.0 | 0.00 | 0.00 | 0.00 | 63 | 1015.1 |
| 20260507174717 | 57 | 45 | 3.0 | 7.0 | 0.00 | 0.00 | 0.00 | 62 | 1015.1 |
| 20260507173237 | 58 | 315 | 3.0 | 8.0 | 0.00 | 0.00 | 0.00 | 61 | 1015.1 |
| 20260507172236 | 58 | 68 | 2.0 | 9.0 | 0.00 | 0.00 | 0.00 | 60 | 1015.1 |
| 20260507171237 | 59 | 0 | 3.0 | 6.0 | 0.00 | 0.00 | 0.00 | 59 | 1015.0 |
| 20260507170720 | 60 | 68 | 3.0 | 7.0 | 0.00 | 0.00 | 0.00 | 58 | 1015.0 |
| 20260507165239 | 61 | 338 | 3.0 | 9.0 | 0.00 | 0.00 | 0.00 | 55 | 1014.9 |
| 20260507164245 | 63 | 338 | 3.0 | 10.0 | 0.00 | 0.00 | 0.00 | 53 | 1014.9 |
| 20260507163233 | 64 | 338 | 3.0 | 5.0 | 0.00 | 0.00 | 0.00 | 53 | 1014.5 |
| 20260507162233 | 67 | 45 | 3.0 | 6.0 | 0.00 | 0.00 | 0.00 | 51 | 1014.5 |
| 20260507161235 | 66 | 338 | 4.0 | 8.0 | 0.00 | 0.00 | 0.00 | 52 | 1014.5 |
| 20260507160233 | 65 | 23 | 3.0 | 8.0 | 0.00 | 0.00 | 0.00 | 54 | 1014.5 |
| 20260507155234 | 63 | 248 | 3.0 | 13.0 | 0.00 | 0.00 | 0.00 | 52 | 1014.4 |
| 20260507154234 | 67 | 293 | 2.0 | 8.0 | 0.00 | 0.00 | 0.00 | 49 | 1014.4 |
| 20260507153235 | 67 | 248 | 3.0 | 10.0 | 0.00 | 0.00 | 0.00 | 49 | 1014.0 |
| 20260507152234 | 67 | 135 | 3.0 | 9.0 | 0.00 | 0.00 | 0.00 | 51 | 1014.0 |
| 20260507151230 | 67 | 23 | 3.0 | 9.0 | 0.00 | 0.00 | 0.00 | 50 | 1013.6 |
| 20260507150227 | 66 | 23 | 3.0 | 6.0 | 0.00 | 0.00 | 0.00 | 51 | 1013.6 |
| 20260507145225 | 64 | 45 | 2.0 | 5.0 | 0.00 | 0.00 | 0.00 | 49 | 1013.7 |
| 20260507144717 | 67 | 23 | 2.0 | 4.0 | 0.00 | 0.00 | 0.00 | 46 | 1013.7 |
| 20260507143658 | 69 | 0 | 2.0 | 5.0 | 0.00 | 0.00 | 0.00 | 46 | 1013.5 |
| 20260507142219 | 68 | 338 | 3.0 | 5.0 | 0.00 | 0.00 | 0.00 | 47 | 1013.5 |
| 20260507141707 | 65 | 135 | 2.0 | 0.0 | 0.00 | 0.00 | 0.00 | 51 | 1013.5 |
| 20260507140657 | 66 | 23 | 1.0 | 3.0 | 0.00 | 0.00 | 0.00 | 50 | 1013.5 |
| 20260507140125 | 65 | 158 | 2.0 | 3.0 | 0.00 | 0.00 | 0.00 | 51 | 1013.1 |
| 20260507134649 | 65 | 45 | 2.0 | 4.0 | 0.00 | 0.00 | 0.00 | 52 | 1013.1 |
| 20260507133639 | 65 | 45 | 2.0 | 6.0 | 0.00 | 0.00 | 0.00 | 51 | 1013.0 |
| 20260507132636 | 64 | 23 | 2.0 | 4.0 | 0.00 | 0.00 | 0.00 | 53 | 1013.0 |
| 20260507131622 | 64 | 23 | 3.0 | 5.0 | 0.00 | 0.00 | 0.00 | 53 | 1013.0 |
| 20260507131114 | 64 | 23 | 3.0 | 9.0 | 0.00 | 0.00 | 0.00 | 54 | 1013.0 |
| 20260507130134 | 64 | 338 | 3.0 | 5.0 | 0.00 | 0.00 | 0.00 | 56 | 1012.8 |
| 20260507124623 | 64 | 23 | 2.0 | 5.0 | 0.00 | 0.00 | 0.00 | 57 | 1012.8 |
| 20260507123622 | 64 | 23 | 2.0 | 3.0 | 0.00 | 0.00 | 0.00 | 57 | 1012.8 |
| 20260507122622 | 63 | 338 | 2.0 | 3.0 | 0.00 | 0.00 | 0.00 | 56 | 1012.8 |
| 20260507121625 | 64 | 113 | 1.0 | 4.0 | 0.00 | 0.00 | 0.00 | 57 | 1012.5 |
| 20260507120623 | 64 | 23 | 3.0 | 4.0 | 0.00 | 0.00 | 0.00 | 61 | 1012.5 |
| 20260507115621 | 62 | 45 | 3.0 | 6.0 | 0.00 | 0.00 | 0.00 | 59 | 1012.5 |
| 20260507114619 | 62 | 23 | 3.0 | 6.0 | 0.00 | 0.00 | 0.00 | 59 | 1012.5 |
| 20260507113619 | 62 | 45 | 2.0 | 6.0 | 0.00 | 0.00 | 0.00 | 59 | 1012.5 |
| 20260507112612 | 62 | 23 | 2.0 | 4.0 | 0.00 | 0.00 | 0.00 | 60 | 1012.5 |
| 20260507112051 | 63 | 45 | 2.0 | 4.0 | 0.00 | 0.00 | 0.00 | 62 | 1012.3 |
| 20260507110611 | 63 | 338 | 2.0 | 5.0 | 0.00 | 0.00 | 0.00 | 60 | 1012.3 |
| 20260507105612 | 63 | 45 | 3.0 | 8.0 | 0.00 | 0.00 | 0.00 | 63 | 1012.1 |
| 20260507103611 | 61 | 315 | 2.0 | 4.0 | 0.00 | 0.00 | 0.00 | 63 | 1012.0 |
| 20260507101606 | 59 | 68 | 2.0 | 4.0 | 0.00 | 0.00 | 0.00 | 63 | 1011.7 |
| 20260507100600 | 60 | 45 | 2.0 | 9.0 | 0.00 | 0.00 | 0.00 | 64 | 1011.7 |
| 20260507095555 | 61 | 0 | 1.0 | 3.0 | 0.00 | 0.00 | 0.00 | 65 | 1011.5 |
| 20260507094553 | 61 | 315 | 2.0 | 10.0 | 0.00 | 0.00 | 0.00 | 62 | 1011.5 |
| 20260507093545 | 61 | 23 | 3.0 | 7.0 | 0.00 | 0.00 | 0.00 | 66 | 1011.5 |
| 20260507092539 | 61 | 23 | 2.0 | 5.0 | 0.00 | 0.00 | 0.00 | 65 | 1011.5 |
| 20260507091536 | 60 | 270 | 2.0 | 3.0 | 0.00 | 0.00 | 0.00 | 68 | 1011.5 |
| 20260507090534 | 59 | 45 | 2.0 | 5.0 | 0.00 | 0.00 | 0.00 | 72 | 1011.5 |
| 20260507085531 | 59 | 338 | 2.0 | 6.0 | 0.00 | 0.00 | 0.00 | 73 | 1011.3 |
| 20260507084529 | 60 | 68 | 2.0 | 7.0 | 0.00 | 0.00 | 0.00 | 76 | 1011.3 |
| 20260507083528 | 56 | 68 | 1.0 | 4.0 | 0.00 | 0.00 | 0.00 | 77 | 1011.1 |
| 20260507082527 | 56 | 23 | 2.0 | 4.0 | 0.00 | 0.00 | 0.00 | 78 | 1011.1 |
| 20260507082010 | 57 | 23 | 2.0 | 4.0 | 0.00 | 0.00 | 0.00 | 79 | 1011.0 |
| 20260507080524 | 56 | 45 | 2.0 | 5.0 | 0.00 | 0.00 | 0.00 | 83 | 1011.0 |
| 20260507075526 | 55 | 113 | 1.0 | 2.0 | 0.00 | 0.00 | 0.00 | 90 | 1010.9 |
| 20260507074519 | 53 | 23 | 1.0 | 3.0 | 0.00 | 0.00 | 0.00 | 93 | 1010.9 |
| 20260507073513 | 49 | 315 | 0.0 | 1.0 | 0.00 | 0.00 | 0.00 | 93 | 1010.8 |
| 20260507072519 | 49 | 23 | 0.0 | 2.0 | 0.00 | 0.00 | 0.00 | 94 | 1010.8 |
| 20260507071513 | 47 | 113 | 0.0 | 2.0 | 0.00 | 0.00 | 0.00 | 94 | 1010.9 |
| 20260507070457 | 46 | 135 | 0.0 | 0.0 | 0.00 | 0.00 | 0.00 | 95 | 1010.9 |
| 20260507065504 | 46 | 23 | 0.0 | 2.0 | 0.00 | 0.00 | 0.00 | 95 | 1010.6 |
| 20260507064500 | 45 | 270 | 0.0 | 2.0 | 0.00 | 0.00 | 0.00 | 95 | 1010.6 |
| 20260507063457 | 44 | 248 | 0.0 | 0.0 | 0.00 | 0.00 | 0.00 | 95 | 1010.6 |
| 20260507062457 | 42 | 45 | 0.0 | 0.0 | 0.00 | 0.00 | 0.00 | 95 | 1010.6 |
| 20260507061556 | 42 | 248 | 0.0 | 1.0 | 0.00 | 0.00 | 0.00 | 95 | 1010.3 |
| 20260507060556 | 42 | 225 | 0.0 | 0.0 | 0.00 | 0.00 | 0.00 | 95 | 1010.3 |
| 20260507055600 | 41 | 270 | 0.0 | 2.0 | 0.00 | 0.00 | 0.00 | 95 | 1010.5 |
| 20260507054556 | 41 | 45 | 0.0 | 2.0 | 0.00 | 0.00 | 0.00 | 95 | 1010.5 |
| 20260507053551 | 40 | 45 | 0.0 | 0.0 | 0.00 | 0.00 | 0.00 | 95 | 1009.8 |
| 20260507052542 | 40 | 68 | 0.0 | 0.0 | 0.00 | 0.00 | 0.00 | 95 | 1009.8 |
| 20260507050542 | 39 | 225 | 0.0 | 0.0 | 0.00 | 0.00 | 0.00 | 94 | 1009.9 |
| 20260507045544 | 38 | 270 | 0.0 | 0.0 | 0.00 | 0.00 | 0.00 | 94 | 1009.5 |
| 20260507044543 | 39 | 270 | 0.0 | 0.0 | 0.00 | 0.00 | 0.00 | 94 | 1009.5 |
| 20260507043543 | 39 | 270 | 0.0 | 0.0 | 0.00 | 0.00 | 0.00 | 94 | 1009.3 |
| 20260507043029 | 38 | 270 | 0.0 | 0.0 | 0.00 | 0.00 | 0.00 | 94 | 1009.3 |
| 20260507041538 | 38 | 270 | 0.0 | 0.0 | 0.00 | 0.00 | 0.00 | 93 | 1009.3 |
| 20260507040531 | 38 | 270 | 0.0 | 0.0 | 0.00 | 0.00 | 0.00 | 93 | 1009.3 |
| 20260507035529 | 39 | 23 | 0.0 | 0.0 | 0.00 | 0.00 | 0.00 | 93 | 1009.5 |
| 20260507035008 | 39 | 23 | 0.0 | 0.0 | 0.00 | 0.00 | 0.00 | 93 | 1009.5 |
| 20260507033531 | 39 | 0 | 0.0 | 0.0 | 0.00 | 0.00 | 0.00 | 93 | 1009.3 |
| 20260507032529 | 39 | 270 | 0.0 | 0.0 | 0.00 | 0.00 | 0.00 | 93 | 1009.3 |